Weather in Sivys-Yakh

Russia / Khanty-Mansi Autonomous Okrug — Yugra     60°09′45″N   71°42′23″E
temp.,
°C
wind,
m/s
gust,
m/s
humid.,
%
clouds,
%
prec.,
mm/h
press.,
hPa
HPBL,
m
24 july, sat
sat2423:00+18nw3795100 2.8 1003305
02:00+15n259872 0.0 1003179
05:00+15n1397100 0.0 1005113
08:00+14n2495100 0.4 1005231
11:00+15nne3493100 1.6 1005348
14:00+14nne3698100 5.6 1005308
17:00+14n3698100 8.9 1005292
20:00+14n3798100 0.3 1005343
25 july, sun
sun2523:00+13n2598100 0.3 1006253
02:00+13nnw2498100 0.1 1006157
05:00+12nne2597100 0.1 1006189
08:00+14n1394100 0.0 1006209
11:00+13nnw2498100 2.9 1006198
14:00+14nnw2598100 2.4 1007325
17:00+14nne2895100 2.4 1007328
20:00+14nnw2293100 0.0 100749
26 july, mon
mon2623:00+13n2897100 0.0 1007223
02:00+12nnw41384100 0.0 1006554
05:00+12nnw41183100 0.3 1007652
08:00+13nnw41167100 0.0 1007880
11:00+16nnw6105078 0.0 10071553
14:00+17nw5848100 0.0 10072089
17:00+16nnw3856100 0.0 10071711
20:00+13wnw3868100 0.0 1008307
27 july, tue
tue2723:00+12nw31072100 0.1 1008484
02:00+11wnw3882100 0.1 1007277
05:00+10w2780100 0.1 1007231
08:00+14wnw366348 0.0 1007571
11:00+17wnw4747100 0.0 10052077
14:00+17w2553100 0.0 10051470
17:00+16wsw257595 0.6 1005383
20:00+12wnw2598100 2.3 1005232
28 july, wed
wed2823:00+10wnw229873 2.3 100547
02:00+10wnw2794100 0.0 1005214
05:00+7wnw249416 0.0 1005104
08:00+10wnw2485100 0.0 1006292
11:00+14w345396 0.3 10061625
14:00+13w3653100 0.1 10061318
17:00+14w464597 0.1 10062051
20:00+10wsw2367100 0.0 100767